Location: Fort Frances
(48.6170°N, 93.4170°W)
Time: 21:01:27
(UTC-06:00)

ISS - All Passes

Search period start: 23 January 2017 00:00
Search period end: 02 February 2017 00:00
Orbit: 399 x 410 km, 51.6° (Epoch: 24 January)

Date Brightness Start Highest point End Pass type
(mag) Time Alt. Az. Time Alt. Az. Time Alt. Az.
23 Jan - 01:23:23 10° WNW 01:26:35 51° N 01:29:46 10° E night (unlit)
23 Jan - 02:59:55 10° WNW 03:03:08 57° SSW 03:06:20 10° SE night (unlit)
23 Jan - 04:38:00 10° WSW 04:39:02 11° SW 04:40:03 10° SSW night (unlit)
23 Jan - 21:18:24 10° SSW 21:21:15 28° SE 21:24:06 10° E night (unlit)
23 Jan - 22:54:17 10° WSW 22:57:32 72° NNW 23:00:49 10° ENE night (unlit)
24 Jan - 00:31:07 10° WNW 00:34:17 47° N 00:37:27 10° ENE night (unlit)
24 Jan - 02:07:41 10° WNW 02:10:57 86° SSW 02:14:12 10° ESE night (unlit)
24 Jan - 03:44:43 10° W 03:47:04 19° SW 03:49:25 10° S night (unlit)
24 Jan - 20:26:57 10° S 20:29:13 18° SE 20:31:29 10° E night (unlit)
24 Jan - 22:02:03 10° WSW 22:05:19 82° SSE 22:08:34 10° ENE night (unlit)
24 Jan - 23:38:47 10° W 23:41:58 47° N 23:45:08 10° ENE night (unlit)
25 Jan - 01:15:27 10° WNW 01:18:42 69° NNE 01:21:57 10° E night (unlit)
25 Jan - 02:52:08 10° W 02:55:02 30° SW 02:57:54 10° SSE night (unlit)
25 Jan - 19:36:35 10° SE 19:37:14 10° SE 19:37:53 10° ESE night (unlit)
25 Jan - 21:09:55 10° SW 21:13:07 53° SSE 21:16:19 10° ENE night (unlit)
25 Jan - 22:46:26 10° W 22:49:38 53° N 22:52:51 10° ENE night (unlit)
26 Jan - 00:23:12 10° WNW 00:26:25 55° N 00:29:37 10° E night (unlit)
26 Jan - 01:59:45 10° WNW 02:02:54 48° SSW 02:06:03 10° SE night (unlit)
26 Jan - 20:17:59 10° SSW 20:20:58 33° SE 20:23:57 10° E visible
26 Jan - 21:54:05 10° W 21:57:20 65° NNW 22:00:35 10° ENE night (unlit)
26 Jan - 23:30:54 10° WNW 23:34:05 48° N 23:37:15 10° E night (unlit)
27 Jan - 01:07:27 10° WNW 01:10:42 75° SSW 01:13:56 10° ESE night (unlit)
27 Jan - 02:44:43 10° W 02:46:45 16° SW 02:48:46 10° S night (unlit)
27 Jan - 19:26:21 10° SSW 19:28:53 21° SE 19:31:24 10° E visible
27 Jan - 21:01:46 10° WSW 21:05:02 88° NNW 21:08:19 10° ENE night (unlit)
27 Jan - 22:38:33 10° WNW 22:41:44 47° N 22:44:54 10° ENE night (unlit)
28 Jan - 00:15:11 10° WNW 00:18:26 77° NNE 00:21:42 10° ESE night (unlit)
28 Jan - 01:51:56 10° W 01:54:42 25° SW 01:57:25 10° SSE night (unlit)
28 Jan - 18:35:18 10° SSE 18:36:50 13° SE 18:38:22 10° ESE visible
28 Jan - 20:09:33 10° SW 20:12:47 63° SSE 20:16:01 10° ENE visible
28 Jan - 21:46:09 10° W 21:49:21 50° N 21:52:33 10° ENE night (unlit)
28 Jan - 23:22:54 10° WNW 23:26:08 59° NNE 23:29:21 10° E night (unlit)
29 Jan - 00:59:28 10° WNW 01:02:33 40° SSW 01:05:38 10° SE night (unlit)
29 Jan - 19:17:29 10° SW 19:20:35 39° SSE 19:23:40 10° ENE visible
29 Jan - 20:53:45 10° W 20:57:00 60° NNW 21:00:14 10° ENE visible
29 Jan - 22:30:34 10° WNW 22:33:46 50° N 22:36:57 10° E night (unlit)
30 Jan - 00:07:06 10° WNW 00:10:21 65° SSW 00:13:33 10° SE night (unlit)
30 Jan - 01:44:42 10° WSW 01:46:18 13° SW 01:47:53 10° SSW night (unlit)
30 Jan - 18:25:41 10° SSW 18:28:25 25° SE 18:31:09 10° E visible
30 Jan - 20:01:23 10° WSW 20:04:40 78° NNW 20:07:56 10° ENE visible
30 Jan - 21:38:11 10° WNW 21:41:22 47° N 21:44:32 10° ENE night (unlit)
30 Jan - 23:14:47 10° WNW 23:18:03 86° NNE 23:21:18 10° ESE night (unlit)
31 Jan - 00:51:40 10° W 00:54:13 21° SW 00:56:46 10° SSE night (unlit)
31 Jan - 17:34:19 10° S 17:36:19 15° SE 17:38:19 10° E daylight
31 Jan - 19:09:05 10° WSW 19:12:21 73° SSE 19:15:37 10° ENE visible
31 Jan - 20:45:46 10° W 20:48:58 48° N 20:52:09 10° ENE visible
31 Jan - 22:22:28 10° WNW 22:25:43 64° NNE 22:28:57 10° E night (unlit)
31 Jan - 23:59:05 10° W 00:02:05 34° SSW 00:05:04 10° SSE night (unlit)
01 Feb - 18:16:55 10° SW 18:20:04 47° SSE 18:23:15 10° ENE visible
01 Feb - 19:53:19 10° W 19:56:33 55° N 19:59:47 10° ENE visible
01 Feb - 21:30:06 10° WNW 21:33:19 52° N 21:36:32 10° E night (unlit)
01 Feb - 23:06:39 10° WNW 23:09:51 55° SSW 23:13:02 10° SE night (unlit)
